Location: Nitra
(0.0000°N, 18.0833°E)
Time: 16:30:01
(UTC+01:00)

Daily predictions for brighter satellites

Satellite Brightness Start Highest point End
(mag) Time Altitude Azimuth Time Altitude Azimuth Time Altitude Azimuth
Cosmos 2150 Rocket 4.3 18:19:35 10° S 18:24:30 45° ESE 18:29:22 10° NNE
Cosmos 1939 Rocket 3.3 18:20:42 10° S 18:24:50 70° W 18:28:56 10° NNW
Meteor 1-11 4.5 18:22:00 10° S 18:27:47 80° W 18:33:30 10° N
Aureole 3 2.7 18:25:30 10° N 18:28:33 75° E 18:32:05 10° S
OAO 3 Rocket 4.0 18:28:00 10° WSW 18:32:45 48° NW 18:37:31 10° NE
Cosmos 1758 Rocket 4.2 18:28:31 10° SSW 18:32:49 59° W 18:37:09 10° N
Feng Yun 1-1 Rocket 4.1 18:28:14 10° SSE 18:33:37 81° ENE 18:39:01 10° N
Cosmos 1892 3.8 18:32:11 10° SSE 18:35:15 24° E 18:38:18 10° NE
CZ-2D R/B 3.3 18:31:44 10° S 18:35:37 84° W 18:39:27 10° NNW
GPS 2-04 Rocket1 3.9 18:33:33 10° SSW 18:36:13 22° SE 18:38:43 11° E
IRS-1C Rocket 4.1 18:33:54 10° SSE 18:39:07 65° ENE 18:44:18 10° N
H-2A R/B 2.4 18:35:01 10° SE 18:39:30 36° ENE 18:44:00 10° NNE
Cosmos 405 4.4 18:38:53 10° NE 18:41:17 18° E 18:43:41 10° SE
SWARM A 4.2 18:40:18 10° S 18:43:35 63° E 18:46:51 10° N
Cosmos 2058 4.4 18:42:30 10° SE 18:45:19 18° E 18:46:39 15° ENE
CZ-4 R/B 1.4 18:41:23 10° SSE 18:45:31 60° ENE 18:49:35 10° N
deb Ariane 3.4 18:44:05 10° W 18:46:41 90° SSW 18:52:41 14° E
Iridium 4 Rocket 3.1 18:41:53 10° N 18:46:43 73° E 18:51:09 10° S
Cosmos 1655 Rocket 4.1 18:41:02 10° S 18:47:09 54° E 18:53:11 10° NNE
Cosmos 923 Rocket 4.2 18:43:46 10° N 18:48:50 49° ENE 18:53:52 10° SSE
Cosmos 2298 Rocket 4.2 18:44:35 10° SSW 18:49:53 78° WNW 18:55:10 10° N
ARGOS 3.8 18:45:15 10° SE 18:49:57 32° ENE 18:54:37 10° NNE
Cosmos 2297 3.8 18:44:56 10° S 18:50:25 55° ESE 18:55:55 10° NNE
Ariane H10+ 3.3 18:36:28 10° W 18:51:06 53° N 18:54:50 18° ENE
Ariane 42L Rocket 3.3 18:51:09 10° SSW 18:51:49 12° S 18:52:39 10° SE
YAOGAN 1 2.5 18:50:19 10° SSE 18:54:36 64° ENE 18:58:52 10° N
Cosmos 1680 Rocket 3.9 18:49:52 10° N 18:54:40 39° ENE 18:59:28 10° SE
Aureole 3 Rocket 3.5 18:51:39 10° N 18:56:00 59° E 19:02:08 10° SSE
Okean-O 2.5 18:52:44 10° SSE 18:57:09 72° ENE 19:01:33 10° N
Meteor 2-8 Rocket 4.4 18:53:28 10° N 18:59:33 74° E 19:05:42 10° S
Cosmos 1553 Rocket 4.5 18:55:26 10° NNE 19:01:08 36° E 19:06:44 10° SSE
Cosmos 1125 Rocket 3.4 18:55:57 10° S 19:01:09 84° E 19:06:20 10° NNE
CZ-2C R/B 3.8 18:56:49 10° S 19:01:40 53° W 19:06:44 10° NNW
ARIANE 5 R/B 1.4 18:58:10 10° W 19:04:09 83° S 19:05:03 35° E
SJ-11-01 4.2 19:00:10 10° SSE 19:04:53 71° ENE 19:09:33 10° N
FUSE 3.9 19:00:55 10° WNW 19:06:15 84° SSW 19:10:46 14° ESE
NATO 3D Rocket 3.3 19:02:39 10° WSW 19:07:21 75° NNW 19:09:56 28° ENE
Cosmos-2242 3.2 19:05:37 10° NNE 19:09:46 48° E 19:13:59 10° SSE
CSL-04 Debris 4.2 19:06:36 10° SSE 19:11:53 55° ENE 19:17:08 10° N
Cosmos 1408 2.4 19:11:30 10° S 19:15:06 71° E 19:16:34 33° NNE
Meteor 2-21 4.3 19:09:18 10° S 19:15:19 77° E 19:21:21 10° N
Palapa 6 Rocket 3.7 19:11:40 10° WNW 19:17:26 64° SSW 19:20:44 20° SE
SL-08 RB Rocket 3.9 19:15:14 10° SSE 19:19:39 47° ENE 19:21:47 27° NNE
GEOS 3 Rocket 3.5 19:16:56 25° NE 19:20:02 79° ESE 19:25:08 10° SSW
Chunghua 1 4.4 19:19:32 10° SW 19:23:14 74° SE 19:23:38 65° E
CCE 1 Rocket 3.7 19:18:10 10° NW 19:24:13 65° NNE 19:25:24 46° E
CZ-2C R/B 4.5 19:19:54 10° NNW 19:24:47 31° WNW 19:29:40 10° SW
S3M 4.3 19:23:00 30° NE 19:25:06 40° E 19:30:50 10° SSE
Meteor 2-14 Rocket 4.4 19:21:09 10° S 19:27:14 85° W 19:33:17 10° N
ARIANE DEB (SYLDA) 3.1 19:24:19 10° WSW 19:28:56 37° S 19:30:08 28° SE
Meteor 2-15 Rocket 4.3 19:23:48 10° N 19:29:53 69° E 19:35:59 10° S
SL-8 R/B 3.9 19:28:38 10° SSW 19:33:16 51° SE 19:33:32 50° ESE
Cosmos 2112 Rocket 3.9 19:28:10 10° NNW 19:33:20 87° W 19:38:32 10° S
Meteor 1-27 4.1 19:30:25 25° NNE 19:33:32 58° E 19:39:00 10° SSE
Cosmos 1825 2.4 19:30:13 10° S 19:33:19 57° SSE 19:33:19 57° SSE
Cosmos 1076 Rocket 4.2 19:30:11 10° SSE 19:33:19 39° SE 19:33:19 39° SE
DELTA 2 R/B (1) 3.5 19:30:56 10° NW 19:36:28 86° SW 19:39:22 29° SE
Ariane 44P Rocket 3.4 19:33:12 10° W 19:36:31 65° N 19:39:09 39° ENE
Meteor 2-21 Rocket 4.3 19:30:42 10° S 19:36:45 89° E 19:41:07 20° N
CZ-3A R/B 3.0 19:32:23 10° WSW 19:38:42 78° NNW 19:43:03 38° NE
Helios 1A Rocket 4.4 19:36:18 10° S 19:40:05 37° WSW 19:43:54 10° NW
Lacrosse 5 rocket 1.8 19:38:10 10° SW 19:42:45 65° WNW 19:43:23 57° NNW
Intercosmos 25 Rocket 4.1 19:39:38 10° S 19:45:25 64° W 19:46:36 44° NNW
NOSS 3-3 (A) 3.5 19:43:49 10° SSW 19:49:21 74° ESE 19:49:32 73° E
NOSS 3-3 (C) 3.5 19:43:55 10° SSW 19:49:27 72° ESE 19:49:35 72° E
Cosmos 1943 Rocket 2.5 19:44:07 10° SSW 19:49:31 60° WNW 19:51:43 35° N
Delta 168 4.0 19:46:57 10° W 19:48:53 32° WSW 19:48:53 32° WSW
Cosmos 2369 Rocket 2.1 19:45:00 10° S 19:50:31 66° ESE 19:50:31 66° ESE
BREEZE-M DEB (TANK) 4.4 19:22:08 10° SW 19:53:11 89° ESE 19:55:51 47° NE
H-10 deb 3.9 19:58:01 10° WSW 19:58:54 20° WSW 19:58:54 20° WSW
BLOCK DM-SL R/B 3.6 19:39:15 10° W 20:06:21 89° S 20:06:55 76° E
MOS 1-B Rocket 4.4 20:26:54 74° SSW 20:26:54 74° SSW 20:33:54 10° SSW
